Miscellaneous Local Product
Issued by NWS Hastings, NE

Home | Current Version | Previous Version | Text Only | Print | Product List | Glossary Off
Versions: 1 2 3 4 5 6 7 8 9 10 11 12 13 14 15 16 17 18 19 20 21 22 23 24 25 26 27 28 29 30 31 32 33 34 35 36 37 38 39 40 41 42 43 44 45 46 47 48 49 50

000
AXUS43 KGID 060802
MISGRI

GID CWA HOURLY WEATHER ROUNDUP
NATIONAL WEATHER SERVICE HASTINGS NE
300 AM CDT MON JUL 06 2015

NOTE: "FAIR" INDICATES FEW OR NO CLOUDS BELOW 12,000 FEET WITH NO
SIGNIFICANT WEATHER AND/OR OBSTRUCTIONS TO VISIBILITY.

...SOUTH CENTRAL NEBRASKA...

CITY           SKY/WX    TMP DP  RH WIND       PRES   REMARKS
GRAND ISLAND   CLOUDY    72  68  87 W10       29.90R THUNDER
HASTINGS       TSTM      72  66  81 MISG      29.86R
KEARNEY        CLOUDY    70  66  88 N9        29.88R
ORD            LGT RAIN  69  66  90 NW13      29.84F
YORK           LGT RAIN  77  68  73 S6        29.86R
AURORA         CLOUDY    73  70  90 SE26G32   29.90R
LEXINGTON      CLOUDY    71  67  87 N5        29.88F
HOLDREGE       CLOUDY    76  63  65 N15G22    29.86R
HEBRON         CLOUDY    82  66  57 S15G22    29.80F

...NEBRASKA PANHANDLE...

CITY           SKY/WX    TMP DP  RH WIND       PRES   REMARKS
CHADRON        LGT RAIN  61  59  93 N12       30.10R FOG
ALLIANCE       CLOUDY    62  59  90 N16       30.06R
SCOTTSBLUFF    LGT RAIN  62  60  93 N9        30.10R
SIDNEY         CLOUDY    63  61  93 N10       30.08R

...WESTERN AND NORTH CENTRAL NEBRASKA...

CITY           SKY/WX    TMP DP  RH WIND       PRES   REMARKS
VALENTINE      LGT RAIN  65  63  93 N15       29.95F
AINSWORTH      LGT RAIN  64  64 100 N13G21    29.94S
ONEILL         RAIN      68  67  98 N7        29.88R
BROKEN BOW     LGT RAIN  69  66  90 N14       29.84F
IMPERIAL       LGT RAIN  67  64  90 NE10G22   29.95S
NORTH PLATTE   CLOUDY    67  63  87 N18G35    29.88S
MCCOOK         LGT RAIN  71  67  87 N13       29.86F

...EASTERN NEBRASKA...

CITY           SKY/WX    TMP DP  RH WIND       PRES   REMARKS
NORFOLK        CLOUDY    72  69  90 N15G24    29.84R
SO SIOUX CITY  RAIN      73  69  87 NW16      29.83R FOG
TEKAMAH        CLOUDY    78  72  81 SE8       29.79R
COLUMBUS       CLOUDY    81  66  61 NW5       29.83R
ALBION         CLOUDY    73  65  75 N9        29.86R
OMAHA EPPLEY   CLOUDY    80  75  84 S7        29.79S
OFFUTT AFB     TSTM      81  73  78 S7        29.79F
MILLARD        CLOUDY    80  74  81 S6        29.79S
LINCOLN        CLOUDY    83  70  64 SW14      29.81R
NEBRASKA CITY  CLOUDY    81  69  67 S15       29.82R
BEATRICE       CLOUDY    82  71  68 S14G24    29.81S
FALLS CITY     CLOUDY    81  73  76 S12       29.82F

...NORTHERN KANSAS...

CITY           SKY/WX    TMP DP  RH WIND       PRES   REMARKS
GOODLAND       CLOUDY    67  64  90 NW10      29.93R
HILL CITY      CLOUDY    83  64  52 SW9       29.85F
NORTON         LGT RAIN  79  61  53 CALM      29.85S
PHILLIPSBURG   CLEAR     84  64  51 SW5       29.85S
SMITH CENTER   CLEAR     81  64  57 S13       29.85R
HAYS           CLOUDY    81  64  57 S24G32    29.83F
RUSSELL        CLOUDY    80  67  64 S22       29.82F
CONCORDIA      CLOUDY    82  69  64 S21G35    29.81F
SALINA         CLOUDY    83  68  60 S17       29.83F
TOPEKA         MOCLDY    80  72  76 S8        29.87F



USA.gov is the U.S. government's official web portal to all federal, state and local government web resources and services.